Weather History for Palm Springs, CA

Change the Weather History Date:

Saturday, December 14, 2013

  Actual Average Record
Temperature  
Mean Temperature 60 °F 55 °F  
Max Temperature 73 °F 67 °F 86 °F (1953)
Min Temperature 46 °F 44 °F 25 °F (1967)
Degree Days  
Heating Degree Days 5 10  
Month to date heating degree days 151 123  
Since 1 July heating degree days 212 219  
Cooling Degree Days 0 0  
Month to date cooling degree days 1 0  
Year to date cooling degree days 4507 4137  
Growing Degree Days 12 (Base 50)    
Moisture  
Dew Point 19 °F    
Average Humidity 29    
Maximum Humidity 46    
Minimum Humidity 12    
Precipitation  
Precipitation 0.00 in 0.03 in 0.37 in (1934)
Month to date precipitation T 0.29  
Year to date precipitation 2.23 5.15  
Since 1 July precipitation 1.26 2.21  
Snow  
Snow 0.00 in - - ()
Month to date snowfall 0.0  
Year to date snowfall 0.0  
Since 1 July snowfall 0.0  
Snow Depth 0.00 in    
Sea Level Pressure  
Sea Level Pressure 30.33 in    
Wind  
Wind Speed 8 mph (NW)    
Max Wind Speed 21 mph    
Max Gust Speed 25 mph    
Visibility 10 miles    
Events      
T = Trace of Precipitation, MM = Missing Value Source: NWS Daily Summary

Daily Weather History Graph

Daily Weather History Graph

Search for Another Location

Airport:

Trip Planner

Search our weather history database for the weather conditions in past years. The results will help you decide how hot, cold, wet, or windy it might be!

Date:

Astronomy

Dec. 14, 2013 Rise Set
Actual Time 6:43 AM PST 4:38 PM PST
Civil Twilight 6:15 AM PST 5:06 PM PST
Nautical Twilight 5:44 AM PST 5:37 PM PST
Astronomical Twilight 5:13 AM PST 6:07 PM PST
Moon 2:59 PM PST (12/14) 4:12 AM PST (12/14)
Length of Visible Light 10h 50m
Length of Day
9h 55m
Waxing Gibbous, 94% of the Moon is Illuminated
Dec 14
Waxing Gibbous
Dec 17
Full
Dec 25
Last Quarter
Jan 1
New
Jan 7
First Quarter

Hourly Weather History & Observations

Time (PST) Temp. Dew Point Humidity Pressure Visibility Wind Dir Wind Speed Gust Speed Precip Events Conditions
12:53 AM 50.0 °F 30.0 °F 46% 30.25 in 10.0 mi West 5.8 mph - N/A   Clear
1:53 AM 55.9 °F 21.0 °F 26% 30.25 in 10.0 mi WNW 4.6 mph - N/A   Clear
2:53 AM 57.9 °F 18.0 °F 21% 30.26 in 10.0 mi Variable 5.8 mph - N/A   Clear
3:53 AM 61.0 °F 18.0 °F 19% 30.27 in 10.0 mi NNW 13.8 mph - N/A   Clear
4:53 AM 55.0 °F 19.9 °F 25% 30.29 in 10.0 mi West 4.6 mph - N/A   Clear
5:53 AM 59.0 °F 19.0 °F 21% 30.31 in 10.0 mi NW 4.6 mph - N/A   Clear
6:53 AM 60.1 °F 19.0 °F 20% 30.34 in 10.0 mi WNW 4.6 mph - N/A   Clear
7:53 AM 60.1 °F 21.9 °F 23% 30.36 in 10.0 mi WNW 4.6 mph - N/A   Clear
8:53 AM 64.9 °F 19.9 °F 18% 30.38 in 10.0 mi NNW 16.1 mph - N/A   Clear
9:53 AM 69.1 °F 19.9 °F 15% 30.39 in 10.0 mi North 15.0 mph 20.7 mph N/A   Clear
10:53 AM 70.0 °F 19.0 °F 14% 30.37 in 10.0 mi North 18.4 mph - N/A   Clear
11:53 AM 73.0 °F 17.1 °F 12% 30.34 in 10.0 mi NNE 10.4 mph - N/A   Clear
12:53 PM 72.0 °F 17.1 °F 12% 30.32 in 10.0 mi NNE 3.5 mph - N/A   Clear
1:53 PM 72.0 °F 17.1 °F 12% 30.29 in 10.0 mi NNW 8.1 mph - N/A   Clear
2:53 PM 72.0 °F 17.1 °F 12% 30.30 in 10.0 mi NNE 4.6 mph - N/A   Clear
3:53 PM 72.0 °F 18.0 °F 13% 30.30 in 10.0 mi Calm Calm - N/A   Clear
4:53 PM 68.0 °F 18.0 °F 15% 30.31 in 10.0 mi WNW 4.6 mph - N/A   Clear
5:53 PM 64.0 °F 21.0 °F 19% 30.32 in 10.0 mi NW 3.5 mph - N/A   Clear
6:53 PM 60.1 °F 19.9 °F 21% 30.33 in 10.0 mi West 6.9 mph - N/A   Clear
7:53 PM 63.0 °F 17.1 °F 17% 30.34 in 10.0 mi NNW 6.9 mph - N/A   Clear
8:53 PM 64.0 °F 18.0 °F 17% 30.35 in 10.0 mi NW 4.6 mph - N/A   Clear
9:53 PM 64.0 °F 18.0 °F 17% 30.38 in 10.0 mi NNW 5.8 mph - N/A   Clear
10:53 PM 63.0 °F 19.9 °F 19% 30.39 in 10.0 mi WNW 8.1 mph - N/A   Clear
11:53 PM 62.1 °F 19.0 °F 19% 30.37 in 10.0 mi West 4.6 mph - N/A   Clear